Regional Weather Roundup
Issued by NWS

Home | Current Version | Previous Version | Graphics & Text | Print | Product List | Glossary On
Versions: 1 2 3 4 5 6 7 8 9 10 11 12 13 14 15 16 17 18 19 20 21 22 23 24 25 26 27 28 29 30 31 32 33 34 35 36 37 38 39 40 41 42 43 44 45 46 47 48 49 50
000
ASUS43 KDTX 300001
RWRMI
MICHIGAN HOURLY REGIONAL WEATHER ROUNDUP
NATIONAL WEATHER SERVICE DETROIT/PONTIAC MI
800 PM EDT FRI JUL 29 2016

NOTE: "FAIR" INDICATES FEW OR NO CLOUDS BELOW 12,000 FEET WITH NO
SIGNIFICANT WEATHER AND/OR OBSTRUCTION TO VISIBILITY.

MIZ047>049-052>055-059>063-066>070-074>076-081>083-300100-
SOUTHEAST LOWER MICHIGAN

CITY           SKY/WX    TMP DP  RH WIND       PRES   REMARKS
ADRIAN         MOCLDY    75  68  78 SE9       29.96R
6HR MIN TEMP:  75; 6HR MAX TEMP:  86; 6HR PCP: TRACE;

ALMA           CLOUDY    71  60  68 NE9       30.01S
ANN ARBOR      CLOUDY    76  66  71 NE7       29.96R
BAD AXE        CLOUDY    68  57  67 NE8       30.03S
CARO           CLOUDY    69  57  64 N3        30.01R
DETROIT CITY   CLOUDY    75  62  64 NE13      29.97R
6HR MIN TEMP:  74; 6HR MAX TEMP:  82; 6HR PCP:  0.02;

DETROIT        CLOUDY    77  64  64 E7        29.96R
6HR MIN TEMP:  73; 6HR MAX TEMP:  87; 6HR PCP: TRACE;

FLINT          MOCLDY    77  55  46 NE13      29.99S
6HR MIN TEMP:  77; 6HR MAX TEMP:  85;

GROSSE ILE     MOCLDY    75  65  71 NE6       29.95R
6HR MIN TEMP:  72; 6HR MAX TEMP:  84; 6HR PCP:  0.12;

HILLSDALE      CLOUDY    74  66  74 E9        29.96R
6HR MIN TEMP:  59; 6HR MAX TEMP:  87; 6HR PCP:  0.03;

HOWELL         PTCLDY    75  55  49 NE8G16    29.98R

CITY           SKY/WX    TMP DP  RH WIND       PRES   REMARKS
JACKSON        CLOUDY    75  66  73 E7        29.96R
6HR MIN TEMP:  75; 6HR MAX TEMP:  80;

LAMBERTVILLE   CLOUDY    75  69  81 CALM      29.95S
6HR MIN TEMP:  71; 6HR MAX TEMP:  86;

LANSING        CLOUDY    72  56  57 NE12      29.98R
6HR MIN TEMP:  72; 6HR MAX TEMP:  79; 6HR PCP: TRACE;

LAPEER         FAIR      72  56  57 NE5       30.01R
6HR MIN TEMP:  72; 6HR MAX TEMP:  80;

MASON          CLOUDY    75  57  54 NE9       29.97R
6HR MIN TEMP:  75; 6HR MAX TEMP:  80;

MONROE         MOCLDY    74  69  83 NE6       29.95R
6HR MIN TEMP:  73; 6HR MAX TEMP:  85;

PONTIAC        CLOUDY    75  56  51 NE8       29.98R
6HR MIN TEMP:  75; 6HR MAX TEMP:  82;

PORT HOPE        N/A     70  59  68 NE16      30.01F
6HR MIN TEMP:  70; 6HR MAX TEMP:  72;

PORT HURON     CLOUDY    70  61  73 N7        29.99R
TRI CITIES     MOCLDY    70  59  68 NE15      30.02S
6HR MIN TEMP:  70; 6HR MAX TEMP:  75; 6HR PCP: TRACE;

MIDLAND        FAIR      69  58  66 NE10      30.02S
6HR MIN TEMP:  69; 6HR MAX TEMP:  76;

TROY           CLOUDY    78  56  46 NE12      30.00R
SAGINAW HB     CLOUDY    72  55  56 NE10      30.01R
$$
MIZ043>046-050>051-056>058-064>065-071>073-077>080-300100-
SOUTHWEST LOWER MICHIGAN

CITY           SKY/WX    TMP DP  RH WIND       PRES   REMARKS
BATTLE CREEK   CLOUDY    72  65  78 NE8       29.97R
6HR MIN TEMP:  72; 6HR MAX TEMP:  78;

BENTON HARBOR  RAIN      72  68  87 CALM      29.95R FOG
6HR MIN TEMP:  72; 6HR MAX TEMP:  85; 6HR PCP:  0.11;

BIG RAPIDS     MOSUNNY   73  59  63 SE12      30.01R
6HR MIN TEMP:  73; 6HR MAX TEMP:  78;

COLDWATER      CLOUDY    75  68  79 NE7       29.95R
6HR MIN TEMP:  69; 6HR MAX TEMP:  76;

FREMONT        FAIR      72  63  73 E8        29.99S
HOLLAND        CLOUDY    74  63  68 E7        29.97R
6HR MIN TEMP:  74; 6HR MAX TEMP:  80;

GRAND RAPIDS   PTSUNNY   72  63  73 NE9       29.99R
6HR MIN TEMP:  72; 6HR MAX TEMP:  77;

IONIA          FAIR      70  60  70 NE9       29.98R
6HR MIN TEMP:  68; 6HR MAX TEMP:  74; 6HR PCP:  0.01;

KALAMAZOO      CLOUDY    74  63  68 NE6       29.96R
6HR MIN TEMP:  74; 6HR MAX TEMP:  79;

LUDINGTON      PTSUNNY   76  63  64 CALM      29.97S
6HR MIN TEMP:  74; 6HR MAX TEMP:  79;

MARSHALL       CLOUDY    75  64  68 CALM      29.95R
6HR MIN TEMP:  72; 6HR MAX TEMP:  79;

MOUNT PLEASANT CLOUDY    71  57  61 E7        30.01S
6HR MIN TEMP:  71; 6HR MAX TEMP:  78;

MUSKEGON       PTSUNNY   75  61  61 E9        29.98R
6HR MIN TEMP:  75; 6HR MAX TEMP:  78;

SOUTH HAVEN    LGT RAIN  73  66  80 NE5       29.95R
$$
MIZ016>042-300100-
NORTHERN LOWER MICHIGAN

CITY           SKY/WX    TMP DP  RH WIND       PRES   REMARKS
ALPENA         CLEAR     71  53  52 SE7       30.06R
6HR MIN TEMP:  71; 6HR MAX TEMP:  77;

BEAVER ISLAND  SUNNY     73  51  47 E7        30.05R
6HR MIN TEMP:  73; 6HR MAX TEMP:  76;

BELLAIRE       SUNNY     76  50  39 NE9       30.02R
6HR MIN TEMP:  76; 6HR MAX TEMP:  82;

CADILLAC       CLOUDY    72  61  68 N5        30.02S
CHARLEVOIX     SUNNY     75  48  38 NE10      30.07R
6HR MIN TEMP:  74; 6HR MAX TEMP:  78;

FRANKFORT      SUNNY     75  55  50 N6        30.01S
GAYLORD        SUNNY     74  47  38 E8        30.06R
6HR MIN TEMP:  74; 6HR MAX TEMP:  80;

GRAYLING       SUNNY     74  52  45 E12       30.04S
HARBOR SPRINGS SUNNY     74  49  41 E10       30.05R
HOUGHTON LAKE  MOSUNNY   72  56  57 E10       30.04R
6HR MIN TEMP:  72; 6HR MAX TEMP:  78;

MANISTEE       CLOUDY    76  60  57 NE8       29.99S
OSCODA         CLEAR     69  54  58 N8        30.04S
6HR MIN TEMP:  69; 6HR MAX TEMP:  73;

PELLSTON       SUNNY     75  49  39 E9        30.06R
6HR MIN TEMP:  75; 6HR MAX TEMP:  78;

ROGERS CITY    CLEAR     71  53  53 E5        30.07R
TRAVERSE CITY  MOSUNNY   77  58  51 N6        29.98S
6HR MIN TEMP:  77; 6HR MAX TEMP:  81;

$$
MIZ007>008-015-300100-
EASTERN UPPER MICHIGAN

CITY           SKY/WX    TMP DP  RH WIND       PRES   REMARKS
KINROSS        SUNNY     71  54  54 N10       30.06R
6HR MIN TEMP:  71; 6HR MAX TEMP:  78;

MACKINAC ISLAN SUNNY     73  53  50 CALM      30.05S
6HR MIN TEMP:  71; 6HR MAX TEMP:  74;

S. S. MARIE    SUNNY     73  54  51 NW9       30.05R
6HR MIN TEMP:  73; 6HR MAX TEMP:  79;

$$
MIZ004>006-011>014-085-300100-
CENTRAL UPPER MICHIGAN

CITY           SKY/WX    TMP DP  RH WIND       PRES   REMARKS
MANISTIQUE     SUNNY     71  56  58 SE5       30.05R
6HR MIN TEMP:  71; 6HR MAX TEMP:  75;

ESCANABA       MOSUNNY   73  55  53 SE10      30.04R
6HR MIN TEMP:  73; 6HR MAX TEMP:  75;

MENOMINEE      SUNNY    N/A N/A N/A E8        30.05R
SAWYER-GWINN   SUNNY     70  50  49 NE10      30.08S
$$
MIZ001>003-009>011-084-300100-
WESTERN UPPER MICHIGAN

CITY           SKY/WX    TMP DP  RH WIND       PRES   REMARKS
IRON MOUNTAIN  PTSUNNY   74  54  49 E3        30.04R
6HR MIN TEMP:  74; 6HR MAX TEMP:  80;

HOUGHTON       SUNNY     69  48  47 E8        30.08S
6HR MIN TEMP:  69; 6HR MAX TEMP:  74;

COPPER HARBOR    N/A     73  51  46 SE3       30.07S
6HR MIN TEMP:  68; 6HR MAX TEMP:  76;

IRONWOOD       SUNNY     70  55  60 N8        30.04S
6HR MIN TEMP:  70; 6HR MAX TEMP:  73;

$$

ABBREVIATIONS USED IN REMARKS
   TC - TEMPERATURE IN CELSIUS
  WCI - WIND CHILL INDEX
   HX - HEAT INDEX
  VSB - VISIBILITY





USA.gov is the U.S. government's official web portal to all federal, state and local government web resources and services.